WetterOnline ( https://www.wetteronline.de )

Wetter aktuell Asch

Aktuelles Wetter: Cheb (490m)

6-stündlich | Neueste Meldungen
Ortszeit Temperatur Wetter
Do, 18.08. 14:00 24.1° C leicht bewölkt
Do, 18.08. 8:00 18.5° C wolkig
Do, 18.08. 2:00 19.3° C fast wolkenlos
Mi, 17.08. 20:00 27.3° C leicht bewölkt
Mi, 17.08. 14:00 30.3° C leicht bewölkt
Mi, 17.08. 8:00 15.4° C leicht bewölkt
Mi, 17.08. 2:00 14.8° C -
Di, 16.08. 20:00 24.7° C leicht bewölkt
Ortszeit Temperatur Wetter
Do, 18.08. 19:00 24.5° C bedeckt
Do, 18.08. 18:00 26.2° C bedeckt
Do, 18.08. 17:00 28.3° C wolkig
Do, 18.08. 16:00 27.2° C wolkig
Do, 18.08. 15:00 25.7° C leicht bewölkt
Do, 18.08. 14:00 24.1° C leicht bewölkt
Ortszeit Relative Feuchte Sichtweite
Do, 18.08. 14:00 54% 35 km
Do, 18.08. 8:00 68% 30 km
Do, 18.08. 2:00 62% 35 km
Mi, 17.08. 20:00 33% 45 km
Mi, 17.08. 14:00 27% 45 km
Mi, 17.08. 8:00 78% 28 km
Mi, 17.08. 2:00 82% 35 km
Di, 16.08. 20:00 40% 50 km
Ortszeit Relative Feuchte Sichtweite
Do, 18.08. 19:00 56% 35 km
Do, 18.08. 18:00 50% 35 km
Do, 18.08. 17:00 44% 40 km
Do, 18.08. 16:00 46% 35 km
Do, 18.08. 15:00 50% 35 km
Do, 18.08. 14:00 54% 35 km
Ortszeit Niederschlagsmenge Niederschlagsart
Do, 18.08. 14:00 0.4 l/m2 in 6 Std. Schauer
Do, 18.08. 8:00 0.0 l/m2 in 12 Std. -
Do, 18.08. 2:00 0.0 l/m2 in 6 Std. -
Mi, 17.08. 20:00 0.0 l/m2 in 12 Std. -
Mi, 17.08. 14:00 0.0 l/m2 in 6 Std. -
Mi, 17.08. 8:00 0.0 l/m2 in 12 Std. -
Mi, 17.08. 2:00 0.0 l/m2 in 6 Std. -
Di, 16.08. 20:00 0.0 l/m2 in 12 Std. -
Ortszeit Niederschlagsmenge Niederschlagsart
Do, 18.08. 19:00 0.0 l/m2 in 1 Std. -
Do, 18.08. 18:00 0.0 l/m2 in 1 Std. -
Do, 18.08. 17:00 0.0 l/m2 in 1 Std. -
Do, 18.08. 16:00 0.0 l/m2 in 1 Std. -
Do, 18.08. 15:00 0.0 l/m2 in 1 Std. -
Do, 18.08. 14:00 0.0 l/m2 in 1 Std. Schauer
Ortszeit Stärke Spitze Richtung
km/h Bft. km/h Grad Sektor
Do, 18.08. 14:00 4 1 - uml. uml.
Do, 18.08. 8:00 4 1 - uml. uml.
Do, 18.08. 2:00 4 1 - 300° NW
Mi, 17.08. 20:00 7 2 - 270° W
Mi, 17.08. 14:00 7 2 - uml. uml.
Mi, 17.08. 8:00 4 1 - - -
Mi, 17.08. 2:00 4 1 - 110° O
Di, 16.08. 20:00 7 2 - 260° W
Ortszeit Stärke Spitze Richtung
km/h Bft. km/h Grad Sektor
Do, 18.08. 19:00 11 2 - 310° NW
Do, 18.08. 18:00 11 2 - 320° NW
Do, 18.08. 17:00 7 2 - uml. uml.
Do, 18.08. 16:00 7 2 - - -
Do, 18.08. 15:00 7 2 - - -
Do, 18.08. 14:00 4 1 - uml. uml.
Ortszeit Untergrenze Bedeckung Gattung
total tief tief mittel hoch
Do, 18.08. 14:00 1200 m 5/8 2/8 Cu Ac Ci
Do, 18.08. 8:00 1500 m 8/8 2/8 Cu As -
Do, 18.08. 2:00 6300 m - 1/8 - - -
Mi, 17.08. 20:00 4500 m 6/8 4/8 - Ac Ci
Mi, 17.08. 14:00 2100 m 4/8 1/8 Cu - Ci
Mi, 17.08. 8:00 9000 m 5/8 0/8 - - Ci
Mi, 17.08. 2:00 - - - - - -
Di, 16.08. 20:00 1500 m 3/8 1/8 Cu Ac Ci
Ortszeit Bedeckungsgrad in Achtel und Wolkenuntergrenze
Do, 18.08. 19:00 8(3600m)
Do, 18.08. 18:00 8(3900m)
Do, 18.08. 17:00 1(1500m) 5(3000m) 7(9000m)
Do, 18.08. 16:00 1(1500m) 3(2700m) 7(10500m)
Do, 18.08. 15:00 1(1200m) 3(4200m) 6(9000m)
Do, 18.08. 14:00 2(1200m) 3(2400m) 5(9000m)
Ortszeit Luftdruck NN (hPa) Tendenz (hPa in 3 Std.)
Do, 18.08. 14:00 1010 - 0,5
Do, 18.08. 8:00 1011 + 0,5
Do, 18.08. 2:00 1011 - 0,1
Mi, 17.08. 20:00 1009 + 0,1
Mi, 17.08. 14:00 1009 - 1,1
Mi, 17.08. 8:00 1013 + 0,4
Mi, 17.08. 2:00 1013 - 0,1
Di, 16.08. 20:00 1010 + 0,3
Ortszeit Luftdruck NN (hPa) Tendenz (hPa in 3 Std.)
Do, 18.08. 19:00 1007 - 1,7
Do, 18.08. 18:00 1007 - 2,1
Do, 18.08. 17:00 1008 - 1,7
Do, 18.08. 16:00 1008 - 1,5
Do, 18.08. 15:00 1009 - 0,6
Do, 18.08. 14:00 1010 - 0,5
Ortszeit Schneehöhe (cm)
Do, 18.08. 14:00 -
Do, 18.08. 8:00 -
Do, 18.08. 2:00 -
Mi, 17.08. 20:00 -
Mi, 17.08. 14:00 -
Mi, 17.08. 8:00 0
Mi, 17.08. 2:00 -
Di, 16.08. 20:00 -
Ortszeit Schneehöhe (cm)
Do, 18.08. 19:00 -
Do, 18.08. 18:00 -
Do, 18.08. 17:00 -
Do, 18.08. 16:00 -
Do, 18.08. 15:00 -
Do, 18.08. 14:00 -
Link zu dieser Seite / Seite empfehlen

Das Wetter in ...